Regional Weather Roundup
Issued by NWS

Home | Current Version | Previous Version | Graphics & Text | Print | Product List | Glossary Off
Versions: 1 2 3 4 5 6 7 8 9 10 11 12 13 14 15 16 17 18 19 20 21 22 23 24 25 26 27 28 29 30 31 32 33 34 35 36 37 38 39 40 41 42 43 44 45 46 47 48 49 50

858
ASUS43 KMKX 281411
RWRWI

WISCONSIN REGIONAL WEATHER ROUNDUP
NATIONAL WEATHER SERVICE MILWAUKEE/SULLIVAN WI
800 AM CST TUE FEB 28 2017

NOTE: "FAIR" INDICATES FEW OR NO CLOUDS BELOW 12,000 FEET WITH NO
SIGNIFICANT WEATHER AND/OR OBSTRUCTIONS TO VISIBILITY.

WIZ001-002-006>008-014>016-023>028-281500-
NORTHWEST WISCONSIN

CITY           SKY/WX    TMP DP  RH WIND       PRES   REMARKS
SUPERIOR ARPT  LGT SNOW  32  32 100 NE6       29.82R WCI  26
ASHLAND        LGT SNOW  30  29  96 CALM      29.83R VSB 1
HAYWARD        LGT RAIN  34  31  88 N3        29.77F
SIREN          CLOUDY    34  28  77 NE3       29.77F
CUMBERLAND     CLOUDY    34  30  86 NE8       29.74F WCI  27
RICE LAKE      CLOUDY    36  32  87 N6        29.76F WCI  31
CHETEK         LGT RAIN  36  32  87 N5        29.74F WCI  32
LADYSMITH      RAIN      36  32  87 NW9       29.78R WCI  29
EAU CLAIRE     CLOUDY    37  32  82 NE3       29.72F
MENOMONIE      CLOUDY    37  32  83 NW9       29.73S WCI  30
NEW RICHMOND   CLOUDY    36  30  79 NE7       29.74F WCI  30
OSCEOLA        CLOUDY    38  31  75 NE5       29.77S WCI  34
$$

WIZ003>005-009-010-017-018-281500-
NORTH CENTRAL WISCONSIN

CITY           SKY/WX    TMP DP  RH WIND       PRES   REMARKS
MANITOWISH WTR DRIZZLE   33  32  99 CALM      29.77F
ARBOR VITAE    MIX PCPN  34  31  90 E5          N/A  WCI  30
WOODRUFF       MIX PCPN  34  31  90 E5          N/A  WCI  30
RHINELANDER    CLOUDY    35  32  88 E3        29.78S FOG
EAGLE RIVER    DRIZZLE   33  32  96 CALM      29.78F
LAND O LAKES   CLOUDY    34  32  92 CALM      29.80F
PHILLIPS       CLOUDY    33  31  94 CALM      29.75F
TOMAHAWK       CLOUDY    33  31  90 E3        29.77F FOG
MEDFORD        CLOUDY    35  33  92 E5        29.74F FOG     WCI  31
MERRILL        NOT AVBL
$$

WIZ029-030-035-036-043>047-281500-
CENTRAL WISCONSIN

CITY           SKY/WX    TMP DP  RH WIND       PRES   REMARKS
WAUSAU         CLOUDY    35  34  96 E7        29.76F FOG     WCI  29
MOSINEE        CLOUDY    36  36 100 E5        29.77S FOG     WCI  32
MARSHFIELD     FOG       38  36  92 E7        29.73F VSB 1   WCI  33
STEVENS POINT  DRZL/FOG  36  36 100 E6        29.76F VSB 3/4 WCI  31
WAUPACA        FOG       40  39  96 E5        29.78F VSB 3/4
WAUTOMA        FOG       38  37  97 CALM      29.77  VSB 1/4
WISC RAPIDS    FOG       38  38 100 E5        29.76F VSB 1/2 WCI  34
CAMP DOUGLAS   FOG       37  36  99 E6        29.72F VSB<1/4 WCI  32
$$

WIZ011>013-019>022-031-037>040-048>050-281500-
NORTHEAST WISCONSIN

CITY           SKY/WX    TMP DP  RH WIND       PRES   REMARKS
ANTIGO         FOG       34  34 100 SE6       29.79S VSB 1/2 WCI  29
SHAWANO        FOG       37  35  93 N5        29.82F VSB 1   WCI  34
OCONTO         CLOUDY    35  35  99 CALM      29.82F VSB 1/4
STURGEON BAY   CLOUDY    40  39  97 SE9       29.84  FOG     WCI  34
GREEN BAY      CLOUDY    40  40 100 E5        29.80F FOG
MANITOWOC      LGT RAIN  39  37  92 SE7       29.83F VSB 1/2 WCI  34
APPLETON       FOG       37  37 100 SE7       29.77F VSB 1   WCI  32
CLINTONVILLE   FOG       36  36 100 NE5       29.79F VSB 1/2 WCI  32
OSHKOSH        CLOUDY    39  38  96 SE9       29.77F FOG     WCI  33
$$

WIZ032>034-041-042-053>061-281500-
SOUTHWEST WISCONSIN

CITY           SKY/WX    TMP DP  RH WIND       PRES   REMARKS
LA CROSSE      CLOUDY    43  39  86 E5        29.71F
SPARTA         CLOUDY    38  38  99 CALM      29.73F FOG
VIROQUA        CLOUDY    38  38 100 E7        29.70F VSB<1/4 WCI  33
BOSCOBEL       RAIN      41  40  96 E6        29.71F VSB 1
PRAIRIE DU CHI CLOUDY    38  37  97 SE7       29.68F FOG     WCI  33
PLATTEVILLE    CLOUDY    42  42 100 E8        29.70F VSB 1/4
$$

WIZ056-057-062-063-064-067-068-281500-
SOUTH CENTRAL WISCONSIN

CITY           SKY/WX    TMP DP  RH WIND       PRES   REMARKS
REEDSBURG      FOG       39  39 100 NE3       29.72F VSB 3/4
BARABOO/DELLS  FOG       39  38  98 E5        29.72F VSB<1/4
LONE ROCK      CLOUDY    43  41  93 E6        29.72F FOG
MINERAL POINT  CLOUDY    46  46 100 SE10      29.71F FOG
MADISON        CLOUDY    45  43  93 E6        29.74F FOG
MIDDLETON      CLOUDY    44  44 100 SE5       29.74F
WATERTOWN      CLOUDY    43  43 100 SE7       29.76F FOG
MONROE         CLOUDY    45  45 100 S12       29.75S FOG
JANESVILLE     CLOUDY    48  48 100 S10       29.77S
$$

WIZ051-052-058>065-066-070>072-281500-
SOUTHEAST WISCONSIN

CITY           SKY/WX    TMP DP  RH WIND       PRES   REMARKS
MILWAUKEE      CLOUDY    44  41  89 CALM      29.81R FOG
WAUKESHA       FOG       41  41 100 SE7       29.81R VSB 1
MILWAUKEE/TIMM CLOUDY    41  37  87 CALM      29.82R FOG
RACINE         CLOUDY    43  41  93 S9        29.83R FOG
KENOSHA        CLOUDY    45  43  93 S6        29.80S FOG
FOND DU LAC    CLOUDY    38  36  92 SE6       29.77F FOG     WCI  33
SHEBOYGAN      FOG       39  38  96 S6        29.80F VSB 1/2 WCI  35
WEST BEND      FOG       39  39 100 SE3       29.80R VSB 1/4
JUNEAU         FOG       41  41  98 SE8       29.77F VSB 3/4
$$

LSZ147-162-281500-
LAKE SUPERIOR

STATION/POSITION TIME  TEMP    WIND        PRES    WAVE
                       AIR SEA DIR/SP/G            HT/PER
                 (UTC) (F)     (DEG/KT/KT) (MB)    (FT/S)
DEVILS ISLAND    1400   32      60/ 11/ 12 1010.8S
PORT WING        1340   33      40/  5/  6 1010.2R
SAXON HARBOR     1340   31     180/  2/  3 1009.8F
$$

LMZ867-665-643>646-281500-
LAKE MICHIGAN

STATION/POSITION TIME  TEMP    WIND        PRES    WAVE
                       AIR SEA DIR/SP/G            HT/PER
                 (UTC) (F)     (DEG/KT/KT) (MB)    (FT/S)
CHAMBERS ISLAND  1340   39     130/  3/  4 1010.5F
NORTHPORT PIER   1340   38     160/  3/  7 1011.5F
SISTER BAY       1320   38     170/  9/ 11   N/A
KEWAUNEE LAKESHO 1348   38     130/  7/ 10 1009.8F
SHEBOYGAN LAKESH 1400   38     180/  9/ 10 1009.5F
PORT WASHINGTON  1330   39     180/  3/  5 1010.5S
MILWAUKEE LAKESH 1350   38     150/  6/  7   N/A
KENOSHA   LAKESH 1400   41     170/ 16/ 17 1009.5
$$

TC  - TEMPERATURE IN CELSIUS
VSB - VISIBILITY IN STATUTE MILES
WCI - WIND CHILL INDEX
HX  - HEAT INDEX





USA.gov is the U.S. government's official web portal to all federal, state and local government web resources and services.